DW8343 Weather Reports


time (UTC)temp
C
wind
direction
speed
KPH
gust
KPH
rain 1hr
cm
rain 24hr
cm
rain mn
cm
humidity
%
barometer
mb
20260905010411 34 307 1.6 3.2 0.00 0.00 0.00 46 1012.7
20260905005907 34 23 1.6 12.9 0.00 0.00 0.00 45 1012.6
20260905005403 35 62 4.8 4.8 0.00 0.00 0.00 45 1012.7
20260905004857 35 15 1.6 6.4 0.00 0.00 0.00 45 1012.7
20260905004352 35 102 1.6 6.4 0.00 0.00 0.00 45 1012.6
20260905003847 35 103 3.2 6.4 0.00 0.00 0.00 45 1012.5
20260905003343 35 84 1.6 3.2 0.00 0.00 0.00 45 1012.6
20260905002838 35 262 1.6 6.4 0.00 0.00 0.00 44 1012.7
20260905002338 35 259 4.8 6.4 0.00 0.00 0.00 44 1012.7
20260905001832 35 64 0.0 3.2 0.00 0.00 0.00 44 1012.6
20260905001327 35 295 3.2 9.7 0.00 0.00 0.00 44 1012.5
20260905000822 35 322 1.6 6.4 0.00 0.00 0.00 43 1012.5
20260905000318 36 209 1.6 6.4 0.00 0.00 0.00 43 1012.5
20260904235812 36 269 1.6 4.8 0.00 0.00 0.00 43 1012.6
20260904235305 36 28 3.2 4.8 0.00 0.00 0.00 43 1012.6
20260904234757 36 31 0.0 1.6 0.00 0.00 0.00 42 1012.4
20260904234252 36 79 6.4 12.9 0.00 0.00 0.00 42 1012.7
20260904233748 36 270 3.2 12.9 0.00 0.00 0.00 42 1012.7
20260904233244 36 58 3.2 4.8 0.00 0.00 0.00 42 1012.5
20260904232741 36 52 3.2 4.8 0.00 0.00 0.00 42 1012.7
20260904232236 36 41 3.2 9.7 0.00 0.00 0.00 42 1012.6
20260904231731 36 108 1.6 3.2 0.00 0.00 0.00 42 1012.7
20260904231227 36 8 1.6 4.8 0.00 0.00 0.00 42 1012.6
20260904230727 36 261 1.6 9.7 0.00 0.00 0.00 42 1012.6
20260904230221 36 133 3.2 9.7 0.00 0.00 0.00 42 1012.6
20260904225720 36 117 1.6 9.7 0.00 0.00 0.00 42 1012.5
20260904225215 36 59 4.8 6.4 0.00 0.00 0.00 42 1012.6
20260904224714 36 11 0.0 3.2 0.00 0.00 0.00 42 1012.5
20260904224209 36 254 1.6 9.7 0.00 0.00 0.00 42 1012.5
20260904223708 36 115 0.0 6.4 0.00 0.00 0.00 43 1012.5
20260904223203 36 55 4.8 9.7 0.00 0.00 0.00 42 1012.4
20260904222659 36 13 3.2 14.5 0.00 0.00 0.00 42 1012.6
20260904222155 37 292 0.0 11.3 0.00 0.00 0.00 42 1012.6
20260904221653 37 318 0.0 3.2 0.00 0.00 0.00 42 1012.7
20260904221148 37 329 3.2 11.3 0.00 0.00 0.00 42 1012.4
20260904220638 36 71 4.8 4.8 0.00 0.00 0.00 42 1012.5
20260904220133 36 266 6.4 9.7 0.00 0.00 0.00 43 1012.6
20260904215627 37 271 9.7 12.9 0.00 0.00 0.00 42 1012.6
20260904215123 38 222 6.4 14.5 0.00 0.00 0.00 40 1012.5
20260904214623 37 171 6.4 16.1 0.00 0.00 0.00 41 1012.7
20260904214119 37 37 1.6 6.4 0.00 0.00 0.00 40 1012.6
20260904213617 38 296 1.6 9.7 0.00 0.00 0.00 41 1012.7
20260904213113 38 220 0.0 3.2 0.00 0.00 0.00 40 1012.7
20260904212608 38 281 3.2 4.8 0.00 0.00 0.00 40 1012.7
20260904212103 38 10 0.0 11.3 0.00 0.00 0.00 40 1012.7
20260904211602 38 210 4.8 9.7 0.00 0.00 0.00 40 1012.8
20260904211058 39 152 3.2 4.8 0.00 0.00 0.00 37 1012.7
20260904210557 38 279 6.4 9.7 0.00 0.00 0.00 37 1013.0
20260904210053 38 252 3.2 6.4 0.00 0.00 0.00 37 1013.0
20260904205549 38 293 3.2 12.9 0.00 0.00 0.00 39 1013.1
20260904205045 38 352 1.6 11.3 0.00 0.00 0.00 38 1013.1
20260904204541 37 109 3.2 6.4 0.00 0.00 0.00 40 1013.3
20260904204037 38 57 4.8 11.3 0.00 0.00 0.00 39 1013.4
20260904203532 38 254 3.2 11.3 0.00 0.00 0.00 38 1013.4
20260904203029 38 38 9.7 14.5 0.00 0.00 0.00 39 1013.4
20260904202524 38 48 4.8 11.3 0.00 0.00 0.00 39 1013.6
20260904202021 38 257 1.6 9.7 0.00 0.00 0.00 37 1013.5
20260904201515 38 305 1.6 17.7 0.00 0.00 0.00 40 1013.4
20260904201011 38 45 4.8 11.3 0.00 0.00 0.00 38 1013.7
20260904200509 38 102 1.6 17.7 0.00 0.00 0.00 40 1013.7
20260904200005 38 106 3.2 16.1 0.00 0.00 0.00 38 1013.7
20260904195503 38 66 8.0 11.3 0.00 0.00 0.00 39 1013.6
20260904195002 37 167 1.6 11.3 0.00 0.00 0.00 40 1013.5
20260904194457 38 18 1.6 6.4 0.00 0.00 0.00 40 1013.9
20260904193952 38 292 3.2 6.4 0.00 0.00 0.00 40 1013.7
20260904193447 37 243 3.2 9.7 0.00 0.00 0.00 40 1014.0
20260904192943 37 318 0.0 4.8 0.00 0.00 0.00 41 1013.8
20260904192437 37 37 4.8 6.4 0.00 0.00 0.00 41 1013.8
20260904191934 37 288 3.2 9.7 0.00 0.00 0.00 41 1014.0
20260904191430 37 351 0.0 6.4 0.00 0.00 0.00 41 1014.0
20260904190926 37 52 3.2 12.9 0.00 0.00 0.00 42 1014.0
20260904190421 36 283 1.6 9.7 0.00 0.00 0.00 42 1014.0
20260904185917 36 275 1.6 12.9 0.00 0.00 0.00 42 1014.0
20260904185413 36 283 6.4 12.9 0.00 0.00 0.00 42 1014.2
20260904184913 36 269 6.4 9.7 0.00 0.00 0.00 42 1014.2
20260904184408 37 2 3.2 12.9 0.00 0.00 0.00 42 1014.2
20260904183903 37 129 8.0 12.9 0.00 0.00 0.00 42 1014.6
20260904183358 37 259 4.8 4.8 0.00 0.00 0.00 42 1014.3
20260904182853 36 245 4.8 9.7 0.00 0.00 0.00 44 1014.5
20260904182348 36 262 4.8 9.7 0.00 0.00 0.00 45 1014.5
20260904181843 36 298 1.6 6.4 0.00 0.00 0.00 46 1014.5
20260904181338 36 285 3.2 9.7 0.00 0.00 0.00 46 1014.6
20260904180834 36 31 3.2 6.4 0.00 0.00 0.00 46 1014.8
20260904180329 35 265 1.6 6.4 0.00 0.00 0.00 48 1014.7
20260904175828 35 61 3.2 12.9 0.00 0.00 0.00 48 1014.8
20260904175326 35 9 3.2 11.3 0.00 0.00 0.00 48 1014.9
20260904174821 35 252 4.8 11.3 0.00 0.00 0.00 49 1014.8
20260904174317 35 227 3.2 9.7 0.00 0.00 0.00 49 1014.9
20260904173813 35 343 3.2 11.3 0.00 0.00 0.00 49 1015.0
20260904173308 35 337 3.2 12.9 0.00 0.00 0.00 50 1015.2
20260904172804 34 248 4.8 9.7 0.00 0.00 0.00 50 1015.2
20260904172305 34 5 6.4 9.7 0.00 0.00 0.00 51 1015.2
20260904171758 35 209 3.2 12.9 0.00 0.00 0.00 50 1015.2
20260904171253 34 13 3.2 11.3 0.00 0.00 0.00 49 1015.4
20260904170750 34 288 6.4 11.3 0.00 0.00 0.00 51 1015.5
20260904170245 34 258 6.4 11.3 0.00 0.00 0.00 51 1015.6
20260904165744 34 286 4.8 14.5 0.00 0.00 0.00 51 1015.5
20260904165238 34 176 1.6 9.7 0.00 0.00 0.00 52 1015.4
20260904164733 33 125 3.2 11.3 0.00 0.00 0.00 53 1015.4
20260904164228 33 274 3.2 4.8 0.00 0.00 0.00 52 1015.3
20260904163724 33 206 8.0 17.7 0.00 0.00 0.00 54 1015.7
20260904163219 33 322 4.8 6.4 0.00 0.00 0.00 54 1015.5
20260904162718 33 246 4.8 6.4 0.00 0.00 0.00 55 1015.7
20260904162213 33 253 1.6 6.4 0.00 0.00 0.00 55 1015.8
20260904161709 32 273 1.6 12.9 0.00 0.00 0.00 57 1015.6
20260904161204 32 340 6.4 6.4 0.00 0.00 0.00 57 1015.6
20260904160700 32 354 3.2 9.7 0.00 0.00 0.00 57 1015.7
20260904160155 32 220 3.2 11.3 0.00 0.00 0.00 58 1015.5
20260904155649 31 229 3.2 6.4 0.00 0.00 0.00 59 1015.5
20260904155148 31 300 4.8 9.7 0.00 0.00 0.00 59 1015.5
20260904154648 31 281 3.2 9.7 0.00 0.00 0.00 59 1015.3
20260904154147 31 252 3.2 12.9 0.00 0.00 0.00 60 1015.3
20260904153643 31 170 3.2 14.5 0.00 0.00 0.00 62 1015.4
20260904153138 31 321 4.8 4.8 0.00 0.00 0.00 60 1015.5
20260904152635 31 113 3.2 12.9 0.00 0.00 0.00 62 1015.4
20260904152130 31 260 4.8 12.9 0.00 0.00 0.00 62 1015.6
20260904151625 30 325 4.8 9.7 0.00 0.00 0.00 63 1015.7
20260904151123 30 240 8.0 11.3 0.00 0.00 0.00 63 1015.5
20260904150619 30 254 4.8 14.5 0.00 0.00 0.00 64 1015.5
20260904150115 30 196 8.0 9.7 0.00 0.00 0.00 65 1015.5
20260904145613 30 317 1.6 6.4 0.00 0.00 0.00 66 1015.4
20260904145108 29 259 6.4 9.7 0.00 0.00 0.00 67 1015.4
20260904144604 29 221 6.4 9.7 0.00 0.00 0.00 67 1015.5
20260904144059 29 83 3.2 4.8 0.00 0.00 0.00 67 1015.3
20260904143555 28 243 4.8 11.3 0.00 0.00 0.00 69 1015.5
20260904143052 28 21 0.0 1.6 0.00 0.00 0.00 70 1015.4
20260904142548 28 271 1.6 3.2 0.00 0.00 0.00 71 1015.5
20260904142043 27 49 3.2 6.4 0.00 0.00 0.00 71 1015.4
20260904141538 27 258 4.8 9.7 0.00 0.00 0.00 71 1015.7
20260904141033 27 339 3.2 6.4 0.00 0.00 0.00 71 1015.4
20260904140533 27 75 0.0 9.7 0.00 0.00 0.00 72 1015.5
20260904140028 27 16 3.2 9.7 0.00 0.00 0.00 72 1015.6
20260904135527 27 49 3.2 4.8 0.00 0.00 0.00 72 1015.5
20260904135024 27 280 1.6 9.7 0.00 0.00 0.00 73 1015.4
20260904134519 27 301 3.2 12.9 0.00 0.00 0.00 73 1015.6
20260904134013 27 264 1.6 9.7 0.00 0.00 0.00 73 1015.5
20260904133508 26 258 1.6 6.4 0.00 0.00 0.00 75 1015.4
20260904133004 26 235 3.2 3.2 0.00 0.00 0.00 75 1015.6
20260904132503 26 229 3.2 9.7 0.00 0.00 0.00 75 1015.4
20260904131958 26 236 4.8 6.4 0.00 0.00 0.00 76 1015.3
20260904131453 25 51 3.2 3.2 0.00 0.00 0.00 77 1015.4
20260904130949 25 20 0.0 4.8 0.00 0.00 0.00 78 1015.3
20260904130447 25 183 3.2 6.4 0.00 0.00 0.00 78 1015.3
20260904125942 25 117 1.6 12.9 0.00 0.00 0.00 78 1015.2
20260904125439 25 26 3.2 6.4 0.00 0.00 0.00 79 1015.4
20260904124933 25 3 0.0 6.4 0.00 0.00 0.00 79 1015.1
20260904124429 25 269 1.6 3.2 0.00 0.00 0.00 79 1015.1
20260904123924 25 217 0.0 11.3 0.00 0.00 0.00 79 1015.1
20260904123419 25 342 1.6 4.8 0.00 0.00 0.00 80 1015.0
20260904122914 25 173 3.2 3.2 0.00 0.00 0.00 80 1014.9
20260904122414 25 132 1.6 4.8 0.00 0.00 0.00 80 1014.7
20260904121908 25 103 1.6 3.2 0.00 0.00 0.00 80 1014.9
20260904121405 25 152 3.2 4.8 0.00 0.00 0.00 80 1014.9
20260904120901 24 162 1.6 3.2 0.00 0.00 0.00 80 1014.6
20260904120357 24 307 1.6 4.8 0.00 0.00 0.00 80 1014.6
20260904115852 24 290 0.0 3.2 0.00 0.00 0.00 80 1014.6
20260904115347 24 156 0.0 3.2 0.00 0.00 0.00 80 1014.6
20260904114841 25 61 1.6 3.2 0.00 0.00 0.00 80 1014.6
20260904114336 25 23 1.6 3.2 0.00 0.00 0.00 80 1014.6
20260904113831 25 20 0.0 3.2 0.00 0.00 0.00 80 1014.7
20260904113330 25 155 1.6 3.2 0.00 0.00 0.00 80 1014.7
20260904112825 25 153 1.6 3.2 0.00 0.00 0.00 80 1014.5
20260904112321 25 288 1.6 3.2 0.00 0.00 0.00 80 1014.7
20260904111816 25 240 1.6 3.2 0.00 0.00 0.00 79 1014.6
20260904111312 25 91 3.2 3.2 0.00 0.00 0.00 79 1014.6
20260904110808 25 60 0.0 3.2 0.00 0.00 0.00 79 1014.7
20260904110307 25 32 3.2 4.8 0.00 0.00 0.00 79 1014.6
20260904105802 25 18 0.0 6.4 0.00 0.00 0.00 79 1014.5
20260904105305 25 334 1.6 3.2 0.00 0.00 0.00 79 1014.7
20260904104751 25 111 1.6 4.8 0.00 0.00 0.00 78 1014.6
20260904104247 25 19 1.6 4.8 0.00 0.00 0.00 78 1014.6
20260904103744 25 120 1.6 3.2 0.00 0.00 0.00 78 1014.6
20260904103243 25 245 0.0 3.2 0.00 0.00 0.00 78 1014.6
20260904102739 25 43 4.8 4.8 0.00 0.00 0.00 78 1014.6
20260904102234 25 69 3.2 4.8 0.00 0.00 0.00 77 1014.5
20260904101731 25 68 0.0 1.6 0.00 0.00 0.00 77 1014.5
20260904101226 25 93 1.6 4.8 0.00 0.00 0.00 76 1014.7
20260904100722 26 229 3.2 4.8 0.00 0.00 0.00 75 1014.7
20260904100218 26 20 3.2 9.7 0.00 0.00 0.00 75 1014.7
20260904095717 26 27 0.0 1.6 0.00 0.00 0.00 74 1014.8
20260904095212 26 297 0.0 1.6 0.00 0.00 0.00 73 1014.6
20260904094708 26 92 1.6 4.8 0.00 0.00 0.00 73 1014.5
20260904094203 26 151 1.6 6.4 0.00 0.00 0.00 73 1014.4
20260904093700 26 114 1.6 4.8 0.00 0.00 0.00 73 1014.6
20260904093159 26 248 0.0 4.8 0.00 0.00 0.00 74 1014.5
20260904092655 26 271 1.6 3.2 0.00 0.00 0.00 73 1014.3
20260904092151 26 102 0.0 3.2 0.00 0.00 0.00 74 1014.4
20260904091647 26 260 4.8 6.4 0.00 0.00 0.00 73 1014.6
20260904091147 26 41 1.6 1.6 0.00 0.00 0.00 72 1014.5
20260904090642 26 286 1.6 3.2 0.00 0.00 0.00 73 1014.4
20260904090138 26 252 0.0 4.8 0.00 0.00 0.00 73 1014.4
20260904085637 26 183 3.2 4.8 0.00 0.00 0.00 74 1014.5
20260904085132 26 263 1.6 3.2 0.00 0.00 0.00 74 1014.4
20260904084627 26 283 1.6 3.2 0.00 0.00 0.00 75 1014.4
20260904084124 26 183 3.2 6.4 0.00 0.00 0.00 75 1014.5
20260904083620 26 246 1.6 3.2 0.00 0.00 0.00 76 1014.5
20260904083115 26 263 1.6 3.2 0.00 0.00 0.00 76 1014.2
20260904082610 26 320 3.2 6.4 0.00 0.00 0.00 75 1014.4
20260904082106 26 259 1.6 6.4 0.00 0.00 0.00 76 1014.2
20260904081601 26 231 1.6 3.2 0.00 0.00 0.00 76 1014.2
20260904081056 26 276 1.6 3.2 0.00 0.00 0.00 75 1014.2
20260904080552 26 121 3.2 4.8 0.00 0.00 0.00 75 1014.0
20260904080048 26 1 0.0 4.8 0.00 0.00 0.00 76 1014.2
20260904075543 26 37 0.0 1.6 0.00 0.00 0.00 76 1014.1
20260904075038 26 42 1.6 4.8 0.00 0.00 0.00 76 1014.2
20260904074537 26 273 1.6 4.8 0.00 0.00 0.00 76 1014.1
20260904074032 26 224 1.6 3.2 0.00 0.00 0.00 77 1014.2
20260904073527 26 306 3.2 4.8 0.00 0.00 0.00 77 1014.3
20260904073023 26 259 3.2 4.8 0.00 0.00 0.00 77 1014.3
20260904072519 26 177 3.2 4.8 0.00 0.00 0.00 77 1014.3
20260904072014 26 242 0.0 4.8 0.00 0.00 0.00 76 1014.3
20260904071510 26 291 0.0 9.7 0.00 0.00 0.00 77 1014.2
20260904071004 26 20 1.6 4.8 0.00 0.00 0.00 77 1014.3
20260904070503 26 336 4.8 6.4 0.00 0.00 0.00 77 1014.4
20260904065957 26 241 3.2 4.8 0.00 0.00 0.00 76 1014.4
20260904065453 26 234 3.2 4.8 0.00 0.00 0.00 76 1014.4
20260904064948 26 288 4.8 9.7 0.00 0.00 0.00 76 1014.4
20260904064444 26 295 3.2 6.4 0.00 0.00 0.00 76 1014.4
20260904063939 26 76 0.0 9.7 0.00 0.00 0.00 76 1014.5
20260904063436 26 83 1.6 6.4 0.00 0.00 0.00 76 1014.5
20260904062931 26 63 1.6 9.7 0.00 0.00 0.00 76 1014.4
20260904062427 26 78 0.0 9.7 0.00 0.00 0.00 76 1014.5
20260904061922 27 272 1.6 4.8 0.00 0.00 0.00 76 1014.5
20260904061419 27 13 1.6 4.8 0.00 0.00 0.00 75 1014.6
20260904060915 27 222 4.8 9.7 0.00 0.00 0.00 75 1014.4
20260904060411 27 256 3.2 4.8 0.00 0.00 0.00 75 1014.6
20260904055906 27 338 4.8 9.7 0.00 0.00 0.00 75 1014.7
20260904055401 27 193 3.2 4.8 0.00 0.00 0.00 75 1014.7
20260904054856 27 67 3.2 4.8 0.00 0.00 0.00 74 1014.6
20260904054352 27 16 4.8 6.4 0.00 0.00 0.00 74 1014.4
20260904053848 27 82 3.2 3.2 0.00 0.00 0.00 74 1014.4
20260904053346 27 3 4.8 6.4 0.00 0.00 0.00 74 1014.5
20260904052843 27 325 1.6 3.2 0.00 0.00 0.00 73 1014.4
20260904052339 27 227 3.2 9.7 0.00 0.00 0.00 73 1014.4
20260904051834 27 230 1.6 4.8 0.00 0.00 0.00 73 1014.4
20260904051325 27 293 1.6 4.8 0.00 0.00 0.00 73 1014.2
20260904050819 27 176 3.2 9.7 0.00 0.00 0.00 72 1014.2
20260904050316 27 87 3.2 3.2 0.00 0.00 0.00 72 1014.4
20260904045810 27 273 1.6 4.8 0.00 0.00 0.00 72 1014.3
20260904045307 27 224 0.0 9.7 0.00 0.00 0.00 72 1014.4
20260904044800 27 345 0.0 6.4 0.00 0.00 0.00 72 1014.2
20260904044257 27 186 1.6 6.4 0.00 0.00 0.00 71 1014.3
20260904043752 27 165 1.6 9.7 0.00 0.00 0.00 71 1014.4
20260904043249 27 282 1.6 4.8 0.00 0.00 0.00 71 1014.5
20260904042743 28 39 1.6 4.8 0.00 0.00 0.00 71 1014.4
20260904042240 28 34 4.8 6.4 0.00 0.00 0.00 70 1014.5
20260904041739 28 69 3.2 6.4 0.00 0.00 0.00 70 1014.5
20260904041236 28 64 1.6 9.7 0.00 0.00 0.00 70 1014.5
20260904040731 28 29 0.0 4.8 0.00 0.00 0.00 69 1014.5
20260904040227 28 210 1.6 6.4 0.00 0.00 0.00 69 1014.5
20260904035723 28 36 4.8 14.5 0.00 0.00 0.00 69 1014.5
20260904035218 28 16 1.6 4.8 0.00 0.00 0.00 68 1014.7
20260904034717 28 259 3.2 4.8 0.00 0.00 0.00 68 1014.6
20260904034213 28 78 0.0 4.8 0.00 0.00 0.00 68 1014.8
20260904033708 28 313 1.6 4.8 0.00 0.00 0.00 67 1014.5
20260904033205 28 100 3.2 4.8 0.00 0.00 0.00 67 1014.5
20260904032701 29 313 1.6 11.3 0.00 0.00 0.00 66 1014.7
20260904032159 29 201 0.0 4.8 0.00 0.00 0.00 66 1014.3
20260904031654 29 116 4.8 4.8 0.00 0.00 0.00 66 1014.6
20260904031149 29 39 1.6 3.2 0.00 0.00 0.00 66 1014.6
20260904030645 29 306 4.8 6.4 0.00 0.00 0.00 65 1014.4
20260904030140 29 76 3.2 3.2 0.00 0.00 0.00 65 1014.4
20260904025636 29 2 1.6 6.4 0.00 0.00 0.00 65 1014.4
20260904025131 29 40 1.6 3.2 0.00 0.00 0.00 65 1014.2
20260904024626 30 75 4.8 6.4 0.00 0.00 0.00 64 1014.5
20260904024122 30 239 1.6 11.3 0.00 0.00 0.00 64 1014.1
20260904023617 30 280 1.6 3.2 0.00 0.00 0.00 64 1014.1
20260904023108 30 27 3.2 9.7 0.00 0.00 0.00 64 1014.0
20260904022608 30 252 1.6 4.8 0.00 0.00 0.00 63 1014.0
20260904022105 30 290 0.0 6.4 0.00 0.00 0.00 63 1013.9
20260904021600 30 148 3.2 11.3 0.00 0.00 0.00 62 1013.8
20260904021055 30 116 0.0 9.7 0.00 0.00 0.00 62 1013.7
20260904020550 30 279 3.2 9.7 0.00 0.00 0.00 61 1013.5
20260904020044 30 141 3.2 16.1 0.00 0.00 0.00 61 1013.7
20260904015539 30 241 4.8 9.7 0.00 0.00 0.00 60 1013.7
20260904015038 30 168 1.6 4.8 0.00 0.00 0.00 60 1013.5
20260904014532 30 96 3.2 6.4 0.00 0.00 0.00 60 1013.4
20260904014028 30 47 3.2 6.4 0.00 0.00 0.00 60 1013.2
20260904013524 31 149 3.2 6.4 0.00 0.00 0.00 59 1013.4
20260904013020 31 85 4.8 9.7 0.00 0.00 0.00 59 1013.3
20260904012515 31 228 8.0 11.3 0.00 0.00 0.00 59 1013.3
20260904012015 31 248 3.2 11.3 0.00 0.00 0.00 59 1013.2
20260904011509 31 90 3.2 4.8 0.00 0.00 0.00 59 1012.8
20260904011004 31 59 1.6 11.3 0.00 0.00 0.00 59 1012.8